TimeMST,TemperatureF,Dew PointF,Humidity,Sea Level PressureIn,VisibilityMPH,Wind Direction,Wind SpeedMPH,Gust SpeedMPH,PrecipitationIn,Events,Conditions,WindDirDegrees,DateUTC
12:53 AM,19.9,17.1,89,30.15,10.0,East,3.5,-,0.00,,Partly Cloudy,100,2013-01-30 07:53:00
1:53 AM,17.1,12.9,84,30.16,10.0,SSE,5.8,-,N/A,,Clear,150,2013-01-30 08:53:00
2:53 AM,15.1,10.9,84,30.20,10.0,SE,4.6,-,N/A,,Clear,130,2013-01-30 09:53:00
3:53 AM,15.1,9.0,77,30.22,10.0,SSE,8.1,-,N/A,,Clear,150,2013-01-30 10:53:00
4:53 AM,16.0,9.0,74,30.23,10.0,SE,8.1,-,N/A,,Overcast,140,2013-01-30 11:53:00
5:53 AM,18.0,10.0,71,30.24,10.0,SSE,8.1,-,N/A,,Overcast,150,2013-01-30 12:53:00
6:53 AM,19.9,10.0,65,30.25,10.0,SSE,8.1,-,N/A,,Overcast,160,2013-01-30 13:53:00
7:53 AM,19.9,10.9,68,30.24,10.0,SE,9.2,-,N/A,,Overcast,140,2013-01-30 14:53:00
8:43 AM,21.2,10.4,63,30.17,10.0,SSW,5.8,32.2,N/A,,Overcast,210,2013-01-30 15:43:00
8:53 AM,21.9,10.9,63,30.26,10.0,SSW,5.8,-,N/A,,Overcast,200,2013-01-30 15:53:00
9:53 AM,21.9,16.0,78,30.26,10.0,West,6.9,-,N/A,,Overcast,280,2013-01-30 16:53:00
10:53 AM,24.1,15.1,69,30.27,10.0,Calm,Calm,-,N/A,,Overcast,0,2013-01-30 17:53:00
11:53 AM,26.1,15.1,63,30.23,10.0,Calm,Calm,-,N/A,,Mostly Cloudy,0,2013-01-30 18:53:00
12:53 PM,28.0,16.0,61,30.21,10.0,Calm,Calm,-,N/A,,Overcast,0,2013-01-30 19:53:00
1:53 PM,28.9,16.0,58,30.21,10.0,North,4.6,-,N/A,,Overcast,350,2013-01-30 20:53:00
2:53 PM,28.9,16.0,58,30.21,10.0,Calm,Calm,-,N/A,,Overcast,0,2013-01-30 21:53:00
3:53 PM,28.9,16.0,58,30.22,10.0,NNW,3.5,-,N/A,,Overcast,330,2013-01-30 22:53:00
4:53 PM,28.9,17.1,61,30.21,10.0,West,3.5,-,N/A,,Overcast,270,2013-01-30 23:53:00
5:53 PM,28.0,18.0,66,30.22,10.0,West,3.5,-,N/A,,Overcast,270,2013-01-31 00:53:00
6:53 PM,28.0,19.0,69,30.23,10.0,WNW,3.5,-,N/A,,Overcast,290,2013-01-31 01:53:00
7:53 PM,28.0,21.0,75,30.24,10.0,WNW,3.5,-,N/A,,Overcast,290,2013-01-31 02:53:00
8:53 PM,28.0,21.9,78,30.25,10.0,North,3.5,-,N/A,,Overcast,10,2013-01-31 03:53:00
9:53 PM,27.0,23.0,85,30.25,10.0,Calm,Calm,-,N/A,,Overcast,0,2013-01-31 04:53:00
10:53 PM,27.0,23.0,85,30.23,10.0,Calm,Calm,-,N/A,,Overcast,0,2013-01-31 05:53:00
11:53 PM,26.1,24.1,92,30.24,10.0,Calm,Calm,-,N/A,,Overcast,0,2013-01-31 06:53:00